Theta_e
295 299 303 308 313 320 322 322 322 322 321 320 321 320 319 318 319 319 318 318 316 316 316 314 313 312 312 311 310 308 307 306 303 306 309 309 294 294 293 293 293 292 293
294 297 299 305 310 311 312 310 312 312 316 319 320 320 320 319 319 318 317 318 317 316 316 316 314 314 313 313 312 309 308 308 306 304 307 307 301 296 297 292 292 292 292
293 294 295 296 300 301 302 303 304 305 304 305 305 302 301 301 302 303 304 304 305 305 308 312 314 315 314 314 313 312 310 309 308 306 306 308 306 291 290 289 290 290 291
290 291 292 293 295 296 296 297 297 298 299 300 300 298 296 295 295 295 299 301 301 301 302 302 301 300 298 298 300 304 309 308 307 304 304 304 299 287 289 287 286 288 288
287 288 289 291 293 293 293 294 294 294 294 295 295 294 293 292 291 291 293 295 295 295 296 296 296 291 290 292 295 295 296 297 299 301 301 300 291 285 287 288 290 286 285
285 285 288 289 290 290 292 290 290 290 290 290 291 290 289 290 290 290 290 290 291 290 290 291 291 289 291 291 291 292 293 292 292 292 294 295 295 288 286 287 286 283 281
284 284 285 286 286 287 287 288 286 286 287 286 286 287 286 288 290 290 289 288 288 288 288 288 288 289 288 288 289 290 289 291 293 292 290 291 292 290 288 287 287 286 286
283 283 284 284 284 285 284 284 283 284 284 283 283 284 284 286 289 290 289 287 287 287 287 287 287 287 288 288 288 287 288 288 288 289 289 290 291 292 290 290 288 287 283
281 282 283 284 283 283 282 282 282 282 282 281 282 282 282 283 287 288 288 287 286 286 286 287 286 287 288 290 288 286 287 287 289 291 292 292 292 293 293 287 286 284 279
280 281 282 282 282 282 281 281 281 281 281 281 281 281 281 282 285 286 286 284 284 284 285 286 286 287 288 289 287 286 285 286 287 287 287 287 288 288 290 290 287 285 278
279 280 281 281 282 282 281 281 281 280 280 279 279 280 280 281 282 285 286 283 283 283 284 284 285 287 288 288 288 286 286 287 286 285 284 283 285 286 286 286 286 287 281
276 278 279 279 281 281 279 279 279 279 278 278 277 277 279 280 282 284 285 284 285 282 282 284 284 286 286 286 285 287 287 285 283 282 278 278 278 281 281 283 284 284 283
275 279 279 277 279 279 278 279 279 278 278 277 277 276 277 278 280 282 283 283 282 280 280 281 282 284 284 282 283 284 282 282 281 277 274 273 273 277 280 280 280 279 279
277 279 280 279 274 276 279 279 278 278 277 277 277 276 277 278 279 280 280 279 279 279 277 275 277 279 280 280 279 280 278 276 275 275 272 273 275 275 278 279 277 277 276
278 278 279 279 279 273 274 275 277 279 279 277 277 277 276 276 278 281 280 278 276 277 268 267 270 270 271 272 274 276 276 277 277 274 272 273 274 274 276 277 277 276 274
277 278 278 278 277 274 271 270 278 280 280 280 280 279 278 280 280 280 279 279 278 276 263 264 266 266 267 268 270 272 275 277 277 276 272 272 274 274 273 274 275 274 273
277 278 278 278 277 271 265 264 263 268 277 277 278 278 279 278 278 278 277 276 276 270 264 263 263 264 265 267 268 269 271 272 273 273 271 273 276 275 274 274 273 274 273
275 278 278 277 277 276 264 260 258 259 259 262 269 274 276 277 276 275 274 268 261 264 259 260 262 263 264 265 267 268 268 270 271 273 274 275 276 275 273 272 273 272 272
273 276 278 277 276 276 274 259 257 256 255 254 256 267 263 271 272 271 269 258 253 255 257 259 261 262 262 263 265 266 265 266 268 269 271 273 274 273 272 272 272 271 271
275 275 276 271 274 275 272 259 257 255 255 253 254 260 258 259 257 257 254 252 253 253 254 257 260 259 261 262 263 264 265 266 266 266 268 269 272 273 272 271 271 269 268
276 275 274 270 260 263 259 259 256 254 255 253 254 255 271 254 252 251 251 252 251 252 254 254 257 258 259 259 261 263 263 263 264 263 265 266 269 269 271 270 269 269 269
277 275 273 273 266 256 256 255 256 255 254 254 254 253 268 252 251 251 251 251 250 250 250 251 252 254 257 258 260 260 260 262 263 262 263 264 265 267 269 269 268 268 268
275 275 270 268 268 257 255 253 254 254 254 253 253 253 252 252 251 251 251 251 250 251 251 250 251 255 255 256 255 255 258 261 261 259 259 261 261 261 264 267 267 265 264
269 268 265 262 259 259 260 259 257 256 255 255 252 252 254 253 253 253 252 250 250 250 250 250 251 252 254 256 255 254 255 256 255 257 257 259 260 260 264 265 266 265 265
265 264 264 265 263 263 261 260 259 258 257 258 257 254 254 254 253 253 251 250 250 250 252 252 252 253 253 255 259 260 259 259 257 258 256 257 258 258 258 259 260 261 260
265 266 266 265 263 263 263 263 262 260 260 260 259 258 256 255 256 254 252 251 251 252 252 251 252 254 254 255 256 263 264 265 259 259 254 255 256 256 255 256 257 257 257
Wind_Speed
13 11 12 11 11 11 8 7 6 6 6 8 10 10 11 11 11 11 12 11 11 11 13 13 15 16 12 11 10 10 12 12 14 11 12 12 7 11 9 12 12 13 13
12 11 12 11 7 7 8 8 8 7 6 5 5 8 10 10 10 10 11 11 14 14 14 14 15 11 13 13 9 14 13 14 12 18 13 11 11 9 10 9 8 8 10
12 12 13 12 9 10 10 9 10 10 10 9 9 10 11 11 11 9 8 8 9 10 10 9 9 11 13 11 13 13 13 13 13 13 15 9 8 3 3 3 6 8 7
13 13 12 12 11 9 10 11 11 10 11 11 10 11 12 12 11 11 10 7 7 5 6 7 7 8 9 9 7 8 9 9 9 10 12 11 6 2 3 3 4 5 7
15 13 14 12 9 10 12 11 11 12 12 11 11 11 13 12 11 12 10 8 7 8 7 8 7 7 7 8 6 8 7 7 7 7 9 8 3 2 5 4 8 4 4
14 15 13 12 10 12 11 10 12 12 12 12 11 12 14 10 17 18 12 7 8 8 8 9 9 8 12 12 10 10 8 8 8 4 7 7 6 4 3 3 3 3 4
12 12 12 10 12 11 11 12 12 11 10 11 11 11 12 11 20 20 14 7 8 8 8 7 8 6 7 8 11 12 9 10 9 8 10 9 9 4 4 6 8 6 4
11 9 9 10 9 12 12 12 10 8 11 11 12 10 8 10 21 20 14 8 7 8 8 8 8 9 9 12 12 12 12 9 6 6 7 10 11 10 8 6 8 5 3
11 11 12 11 11 10 11 11 8 8 8 9 8 8 9 9 22 22 15 7 6 7 6 7 8 9 16 19 10 10 11 10 7 13 16 18 19 19 15 3 6 7 2
10 9 9 8 10 10 9 9 6 5 7 6 8 8 9 11 22 23 18 8 10 8 9 10 14 17 21 20 10 9 9 10 10 10 9 11 12 11 16 12 7 9 4
7 7 8 8 8 8 8 8 7 6 7 8 8 7 9 12 14 23 24 11 10 9 9 9 8 22 20 20 18 11 12 11 11 8 9 7 7 8 5 1 2 3 5
5 6 8 9 7 8 8 7 7 7 8 8 8 7 7 10 19 21 22 19 17 7 9 7 10 20 19 19 14 20 18 12 7 7 7 5 7 6 6 4 3 3 3
5 7 6 7 7 5 5 8 7 7 8 9 8 8 8 8 8 20 21 21 19 9 7 14 19 19 18 13 19 20 13 9 8 6 4 4 4 4 5 3 7 10 11
5 5 4 4 4 5 4 4 6 7 8 8 8 9 8 9 9 9 9 10 13 9 11 8 12 14 16 14 9 10 7 6 5 4 4 3 4 4 5 4 3 5 7
4 2 3 3 4 3 3 3 4 6 7 4 4 4 5 8 10 13 11 8 8 10 5 4 8 8 9 10 10 9 8 9 9 5 4 4 4 4 4 4 4 4 6
3 2 2 2 2 2 2 4 8 6 7 10 12 8 4 11 15 16 14 18 18 13 4 5 6 7 8 8 9 9 8 10 9 6 4 4 4 4 4 5 6 6 7
5 4 3 2 3 2 3 3 3 5 6 8 12 14 11 10 13 15 11 9 16 10 5 5 5 6 6 7 7 7 8 8 8 6 4 4 4 4 5 5 5 6 7
3 4 3 2 2 2 3 2 2 3 3 4 8 11 12 11 13 15 12 5 4 8 3 4 5 6 6 6 7 7 8 7 7 7 6 6 6 5 5 6 6 6 7
3 3 3 3 2 2 2 2 2 2 1 1 3 5 7 11 12 14 14 6 2 3 3 4 4 5 5 6 6 7 6 6 6 5 6 6 6 4 6 6 7 9 9
4 4 4 2 3 4 3 3 2 2 1 1 2 2 4 5 5 6 4 3 2 2 2 3 4 4 4 5 5 5 6 7 6 5 5 5 6 6 6 7 6 7 7
4 4 5 3 2 3 2 3 3 3 2 1 2 3 6 3 1 1 3 3 3 3 4 3 4 4 4 3 3 5 6 5 5 4 4 5 5 6 6 7 7 7 7
6 5 5 5 3 3 3 3 3 3 3 3 2 2 2 2 1 1 2 3 4 3 3 2 3 2 3 4 4 4 3 5 6 5 4 4 4 5 6 6 6 6 5
7 8 5 4 4 4 3 3 3 3 4 4 3 3 2 2 3 3 3 3 3 4 3 2 3 3 3 3 3 0 2 4 4 4 3 3 4 3 3 5 5 4 3
7 7 6 5 4 4 4 4 4 4 4 4 3 3 3 3 3 4 4 2 3 2 3 3 2 3 3 4 3 2 2 1 1 2 3 3 2 3 4 4 4 5 5
7 7 6 6 6 5 4 4 4 4 4 4 3 3 3 3 3 4 3 3 3 3 3 3 4 4 3 5 5 5 5 7 5 4 3 4 4 4 3 4 3 4 4
7 7 6 5 5 5 5 5 5 4 5 4 4 4 3 3 4 3 3 3 3 3 4 3 3 7 8 4 5 5 4 3 4 5 3 4 3 4 3 3 5 3 4
Wind_Direction
331 325 313 270 256 245 214 200 201 209 216 225 223 221 223 225 229 231 232 227 231 229 228 227 232 230 233 227 225 232 239 236 252 253 254 256 201 218 223 217 221 222 231
340 344 347 354 46 54 62 68 62 50 17 303 248 233 229 226 230 232 235 231 230 234 231 230 237 233 238 241 232 231 235 236 243 260 250 250 233 217 232 219 218 224 227
358 7 8 6 30 61 61 55 59 56 56 43 54 52 44 31 28 32 57 53 29 17 7 332 298 262 239 241 238 244 237 237 236 249 257 250 244 159 193 200 195 215 214
9 12 20 14 20 39 60 58 60 59 57 58 49 65 54 46 34 17 359 20 17 34 21 17 7 5 350 337 336 325 288 260 249 247 256 257 234 181 177 177 211 200 206
14 11 21 13 15 40 47 53 58 57 57 55 61 50 58 40 26 11 357 8 11 6 10 15 8 347 334 340 338 333 322 316 311 281 267 263 230 200 207 197 229 169 193
28 10 14 17 14 39 42 38 53 55 54 52 51 54 48 42 21 24 15 13 16 17 4 358 1 352 351 344 339 321 309 308 298 286 286 278 264 214 199 183 154 154 217
34 17 8 13 21 29 39 48 40 49 58 58 53 53 48 33 25 20 15 17 20 10 8 353 349 352 336 337 334 330 320 296 275 285 285 278 284 239 190 189 204 203 202
23 21 15 23 26 28 35 44 34 38 48 53 52 45 44 26 28 17 16 12 9 5 359 346 341 337 341 338 331 330 328 325 302 292 279 286 283 284 231 220 212 185 59
18 10 12 16 25 25 33 36 24 35 47 58 54 47 39 29 27 22 22 7 1 355 348 347 347 341 335 337 332 323 318 319 302 290 289 294 293 286 269 185 184 171 159
4 2 1 4 24 26 23 26 16 20 49 54 54 39 35 33 26 24 25 16 13 0 6 4 356 355 352 354 349 334 328 325 320 324 321 315 308 296 289 215 188 191 132
347 354 4 14 16 22 26 26 22 24 40 39 45 34 33 31 23 24 23 20 10 360 0 354 351 355 359 3 6 360 350 342 338 334 329 322 325 332 327 330 187 204 159
2 6 15 12 12 20 21 15 21 26 34 33 31 31 25 22 22 19 21 20 8 355 358 349 347 359 3 4 7 1 353 349 337 336 335 329 333 343 346 352 62 56 73
43 39 26 18 9 359 31 40 38 32 38 33 28 21 14 13 12 11 13 14 11 9 4 9 3 1 358 356 359 2 359 355 354 350 345 320 307 316 335 356 59 72 61
63 49 40 39 15 0 8 46 52 43 43 39 32 26 14 16 11 5 7 3 359 11 12 8 11 8 10 0 348 1 353 346 337 335 315 302 324 346 2 10 25 64 75
104 99 68 55 39 5 360 13 56 44 54 40 21 24 9 20 13 10 15 8 7 21 359 5 15 9 5 356 350 356 353 356 354 344 345 354 351 356 10 14 17 27 67
142 122 100 83 59 20 19 7 29 59 63 55 48 43 34 27 17 16 28 30 26 30 30 21 11 3 4 357 345 343 350 358 352 344 352 352 11 18 12 28 54 55 73
160 154 144 99 60 26 33 41 16 340 52 45 32 30 34 32 27 24 32 40 39 43 48 22 17 5 345 344 342 337 342 342 331 349 346 351 2 33 32 37 44 76 65
188 190 170 148 130 91 86 59 52 46 3 337 354 17 15 31 35 34 30 43 25 23 32 11 0 349 342 346 349 341 337 338 355 349 357 357 26 23 53 51 47 63 70
180 194 192 193 186 184 121 104 94 86 106 267 335 355 3 3 24 29 42 60 45 4 350 356 350 350 343 336 340 340 330 338 346 355 2 11 15 23 49 62 66 66 70
163 201 212 183 215 199 187 151 154 159 117 13 354 316 340 20 16 358 2 358 14 349 325 336 338 329 339 336 333 342 348 356 350 2 1 25 25 28 43 50 53 66 61
177 181 202 158 197 216 202 196 181 160 155 196 244 272 76 111 280 292 317 332 340 340 329 327 326 327 322 312 329 6 6 341 332 349 15 23 36 48 49 61 68 67 76
201 188 184 198 182 195 216 203 191 176 176 185 231 270 43 113 196 245 289 295 296 265 263 281 308 313 321 328 346 350 351 8 344 345 22 32 36 56 67 65 67 62 52
200 202 180 201 198 179 189 203 195 197 200 214 216 218 210 208 213 244 244 262 296 313 316 331 335 342 329 334 325 15 24 352 335 326 359 40 60 51 63 95 94 89 81
198 191 189 197 185 201 205 209 215 218 219 223 218 232 228 221 221 228 242 261 287 277 291 302 302 314 318 330 334 331 316 294 42 31 360 347 72 83 84 85 106 111 100
190 190 191 193 196 204 206 220 220 214 220 226 237 230 251 256 267 260 251 240 253 279 283 313 311 306 316 336 344 356 1 21 24 36 39 67 45 30 73 86 80 40 51
188 196 197 184 197 201 204 210 217 212 225 223 223 225 219 232 245 255 260 256 260 262 274 254 268 305 310 312 320 339 0 61 40 39 87 93 97 83 54 77 98 105 114